Location: Antioch Baptist Church
(32.7160°N, 96.7483°W)
Time: 19:52:59
(UTC+00:00)

Cosmos 1933 - Pass Details

Date: 05 December 2023
Orbit: 538 x 542 km, 82.5° (Epoch: 20 February)

Event Time Altitude Azimuth Distance (km) Brightness Sun altitude
Exits shadow 10:36:37 - 31° (NNE) 2,388 6.8 -32.5°
Enters shadow 11:51:29 -45° 351° (N) 9,763 9.6 -17.1°
Reaches altitude 10° 12:12:51 10° 339° (NNW) 1,804 5.6 -12.8°
Maximum altitude 12:16:37 44° 268° (W) 756 3.6 -12.0°
Drops below altitude 10° 12:20:22 10° 195° (SSW) 1,789 6.0 -11.3°
Sets 12:22:34 0° 189° (S) 2,675 7.0 -10.9°
